STARLINK-34230, 64137

Orbit data source: Space-Track

STARLINK-34230, 64137 is a payload satellite owned by SpaceX/Seattle (US) in LEO that was launched on Sat, 24 May 2025 UTC via an FALCON 9 launch vehicle from the Air Force Eastern Test Range (AFETR). Payload-class satellites include a variety of spacecraft equipped with specific instruments for various scientific and technological missions. These include communications satellites like Starlink; space stations such as the ISS; scientific satellites like the Hubble; Earth observation satellites from companies like Planet Labs, Umbra, and HawkEye 360; GPS; miniature CubeSats for education and research; and military/defense satellites.

Not visible in the next 10 days
Identifier
64137, 2025-111Q
Orbit
LEO
Country
Flag of USUS
Related business
Manufacturer
SpaceX/Seattle
Mission
Partially operational Commercial Communications
Bus & Motor
STARLINK V2MO, Unknown motor
Mass
575 kg wet, ~530 kg dry
Launch date (UTC)
2025-05-24 (1 year ago)
Launch vehicle
FALCON 9
Launch site
Air Force Eastern Test Range (AFETR)
Object type
Payload
Rocket body
Debris
Shape & HBR
Box + 2 Pan, 17.7 m
Radar Cross Section
36.964 m², Large (>1 m²)

Expand to show TLE details & history
Last TLE update: 10 hours ago

TLE from 10 hours ago
0 STARLINK-34230
1 64137U 25111Q   26171.41668980  .00276370  35300-4  97453-3 0  9991
2 64137  42.9811 178.6741 0023615 108.0749 103.0569 15.87888301  5860
Epoch: 2026-06-20T10:00Z
TLE epoch observation values (Epoch: 2026-06-20T10:00:01.998Z)
Latitude
-20.96457°
Longitude
-35.8342°
Altitude
316.536 km
Speed
7.717 km/s
True Right ascension
01h 31m 13s
True Declination
-20° 50' 33"
Sunlit
Object was in daylight at epoch
Visualization orbit readout
Latitude
Unknown
Longitude
Unknown
Altitude
Unknown
Speed
Unknown
Apparent Right ascension
Unknown
Apparent Declination
Unknown
Sunlit
N/A
Visualization observer readout
Local Sidereal Time
07:13:06
Azimuth
Unknown
Elevation
Unknown
Doppler factor
Unknown
Orbital elements
Apogee altitude
325.998 km
Perigee altitude
294.409 km
Semi-major axis
6,688.34 km
Eccentricity
0.00236
Inclination
42.9811°
RAAN
178.6741°
Arg. of periapsis
108.0749°
True anomaly
103.32034°
Mean anomaly
103.0569°
Eccentric anomaly
103.18864°
Mean motion
3.96794 °/min
Orbital period
90.73 mins
BSTAR
0.00097453
Loading maneuver chart data...
Computing Atmospheric mass density...
Loading historical data...
Loading historical data...
Loading historical data...
Loading historical data...
Loading historical data...
Loading historical data...
Loading historical data...

Documentation

Showing up to 5 results
|